Torna al catalogo

THORAD AGENA D DEB

AttivoSSO
NORAD 5025·DEBRIS·🇺🇸 United States

Lanciato Apr 8, 1970 da Vandenberg Space Force Base

Loading…

Prossimi Passaggi (prossime 24 ore)

TLE

AggiornatoSource: Space-Track

Epoca: Sep 13, 2026, 10:08 UTC

1 05025U 70025HZ  26256.42237362  .00000175  00000-0  33997-3 0  9993
2 05025 100.0615 325.1562 0044867 157.1368 265.7580 13.50870658771316

Traccia THORAD AGENA D DEB in tempo reale con AllMySat

Download on the App Store